Amberley Military, Queensland

1:34 AM AEST on February 15, 2016 (GMT +1000)
Amberley Military

Weather History for WYAMB - February, 2014

Change the Weather History Date:

Friday, February 14, 2014

  Actual Average Record
Temperature  
Mean Temperature 76 °F -  
Max Temperature 89 °F - - ()
Min Temperature 64 °F - - ()
Cooling Degree Days 12    
Growing Degree Days 26 (Base 50)    
Moisture  
Dew Point 65 °F    
Average Humidity 70    
Maximum Humidity 100    
Minimum Humidity 40    
Precipitation  
Precipitation 0.00 in - - ()
Sea Level Pressure  
Sea Level Pressure 29.75 in    
Wind  
Wind Speed 5 mph ()    
Max Wind Speed 16 mph    
Max Gust Speed -    
Visibility 5.8 miles    
Events      
T = Trace of Precipitation, MM = Missing Value Source: Averaged Metar Reports

Daily Weather History Graph

Daily Weather History Graph

Search for Another Location

Airport or City:

Trip Planner

Search our weather history database for the weather conditions in past years. The results will help you decide how hot, cold, wet, or windy it might be!

Date:

Astronomy

Feb. 14, 2014 Rise Set
Actual Time 5:31 AM AEST 6:35 PM AEST
Civil Twilight 5:06 AM AEST 6:59 PM AEST
Nautical Twilight 4:38 AM AEST 7:28 PM AEST
Astronomical Twilight 4:08 AM AEST 7:57 PM AEST
Moon 5:51 PM AEST 4:37 AM AEST
Length of Visible Light 13h 52m
Length of Day
13h 03m
Waxing Gibbous, 99% of the Moon is Illuminated
Feb 14
Waxing Gibbous
Feb 15
Full
Feb 23
Last Quarter
Mar 1
New
Mar 8
First Quarter

Hourly Weather History & Observations

Time (AEST) Temp. Heat Index Dew Point Humidity Pressure Visibility Wind Dir Wind Speed Gust Speed Precip Events Conditions
12:00 AM 69.8 °F - 66.2 °F 88% 29.86 in 6.2 mi ESE 4.6 mph - N/A   Unknown
12:30 AM 69.8 °F - 66.2 °F 88% 29.86 in 6.2 mi SE 4.6 mph - N/A   Unknown
1:00 AM 69.8 °F - 66.2 °F 88% 29.83 in 6.2 mi SSE 4.6 mph - N/A   Unknown
1:30 AM 69.8 °F - 66.2 °F 88% 29.83 in 6.2 mi Calm Calm - N/A   Unknown
2:00 AM 68.0 °F - 66.2 °F 94% 29.83 in 6.2 mi NW 3.5 mph - N/A   Unknown
2:30 AM 66.2 °F - 64.4 °F 94% 29.83 in 6.2 mi Calm Calm - N/A   Unknown
3:00 AM 66.2 °F - 64.4 °F 94% 29.83 in 5.0 mi WNW 4.6 mph - N/A   Unknown
3:30 AM 66.2 °F - 64.4 °F 94% 29.80 in 5.0 mi Calm Calm - N/A   Unknown
4:00 AM 66.2 °F - 66.2 °F 100% 29.80 in 4.3 mi Calm Calm - N/A   Unknown
4:30 AM 66.2 °F - 64.4 °F 94% 29.80 in 6.2 mi WSW 4.6 mph - N/A   Unknown
4:47 AM 66.2 °F - 64.4 °F 94% 29.80 in 3.7 mi Calm Calm - N/A   Unknown
5:00 AM 64.4 °F - 64.4 °F 100% 29.80 in 3.7 mi Calm Calm - N/A   Unknown
5:30 AM 66.2 °F - 64.4 °F 94% 29.80 in 3.1 mi NW 1.2 mph - N/A   Unknown
6:00 AM 66.2 °F - 66.2 °F 100% 29.83 in 3.1 mi Calm Calm - N/A   Haze
6:30 AM 68.0 °F - 66.2 °F 94% 29.83 in 3.1 mi Calm Calm - N/A   Scattered Clouds
7:00 AM 71.6 °F - 66.2 °F 83% 29.83 in 5.0 mi Calm Calm - N/A   Scattered Clouds
7:30 AM 73.4 °F - 68.0 °F 83% 29.83 in 5.0 mi NNE 3.5 mph - N/A   Scattered Clouds
8:00 AM 77.0 °F - 68.0 °F 74% 29.83 in 6.2 mi SSW 4.6 mph - N/A   Partly Cloudy
8:30 AM 77.0 °F - 66.2 °F 69% 29.83 in 6.2 mi NW 4.6 mph - N/A   Scattered Clouds
9:00 AM 78.8 °F - 64.4 °F 61% 29.83 in 6.2 mi NNE 1.2 mph - N/A   Scattered Clouds
9:30 AM 80.6 °F 82.3 °F 64.4 °F 58% 29.83 in 6.2 mi North 8.1 mph - N/A   Scattered Clouds
10:00 AM 80.6 °F 82.3 °F 64.4 °F 58% 29.83 in 6.2 mi NNE 5.8 mph - N/A   Mostly Cloudy
10:30 AM 84.2 °F 85.6 °F 64.4 °F 51% 29.80 in 6.2 mi NNE 5.8 mph - N/A   Mostly Cloudy
11:00 AM 84.2 °F 85.6 °F 64.4 °F 51% 29.77 in 6.2 mi NE 4.6 mph - N/A   Scattered Clouds
11:30 AM 86.0 °F 86.6 °F 62.6 °F 45% 29.74 in 6.2 mi NE 6.9 mph - N/A   Scattered Clouds
12:00 PM 87.8 °F 89.4 °F 64.4 °F 46% 29.74 in 6.2 mi NE 5.8 mph - N/A   Scattered Clouds
12:30 PM 87.8 °F 88.5 °F 62.6 °F 43% 29.71 in 6.2 mi NNW 6.9 mph - N/A   Scattered Clouds
1:00 PM 87.8 °F 88.5 °F 62.6 °F 43% 29.71 in 6.2 mi NNW 8.1 mph - N/A   Mostly Cloudy
1:30 PM 89.6 °F 90.1 °F 62.6 °F 40% 29.71 in 6.2 mi NNW 4.6 mph - N/A   Mostly Cloudy
2:00 PM 87.8 °F 88.5 °F 62.6 °F 43% 29.68 in 6.2 mi North 5.8 mph - N/A   Mostly Cloudy
2:30 PM 87.8 °F 90.4 °F 66.2 °F 49% 29.68 in 6.2 mi ENE 12.7 mph - N/A   Mostly Cloudy
3:00 PM 86.0 °F 88.2 °F 66.2 °F 51% 29.65 in 6.2 mi East 12.7 mph - N/A   Unknown
3:30 PM 86.0 °F 88.2 °F 66.2 °F 51% 29.65 in 6.2 mi East 15.0 mph - N/A   Unknown
4:00 PM 86.0 °F 88.2 °F 66.2 °F 51% 29.65 in 6.2 mi East 16.1 mph - N/A   Unknown
4:30 PM 84.2 °F 86.6 °F 66.2 °F 55% 29.65 in 6.2 mi East 16.1 mph - N/A   Unknown
5:00 PM 84.2 °F 85.6 °F 64.4 °F 51% 29.65 in 6.2 mi ENE 16.1 mph - N/A   Unknown
5:30 PM 84.2 °F 86.6 °F 66.2 °F 55% 29.65 in 6.2 mi ENE 16.1 mph - N/A   Unknown
6:00 PM 82.4 °F 83.9 °F 64.4 °F 54% 29.65 in 6.2 mi ENE 13.8 mph - N/A   Unknown
6:30 PM 80.6 °F 82.3 °F 64.4 °F 58% 29.65 in 6.2 mi ENE 13.8 mph - N/A   Unknown
7:00 PM 78.8 °F - 66.2 °F 65% 29.65 in 6.2 mi East 10.4 mph - N/A   Unknown
7:30 PM 78.8 °F - 66.2 °F 65% 29.68 in 6.2 mi East 9.2 mph - N/A   Unknown
8:00 PM 77.0 °F - 66.2 °F 69% 29.68 in 6.2 mi East 6.9 mph - N/A   Unknown
8:30 PM 77.0 °F - 66.2 °F 69% 29.68 in 6.2 mi East 8.1 mph - N/A   Unknown
9:00 PM 77.0 °F - 66.2 °F 69% 29.68 in 6.2 mi East 9.2 mph - N/A   Unknown
9:30 PM 77.0 °F - 66.2 °F 69% 29.68 in 6.2 mi East 8.1 mph - N/A   Unknown
10:00 PM 75.2 °F - 68.0 °F 78% 29.68 in 6.2 mi East 6.9 mph - N/A   Unknown
10:30 PM 75.2 °F - 66.2 °F 73% 29.71 in 6.2 mi ESE 3.5 mph - N/A   Unknown
11:00 PM 73.4 °F - 68.0 °F 83% 29.71 in 6.2 mi East 4.6 mph - N/A   Unknown
11:30 PM 71.6 °F - 66.2 °F 83% 29.71 in 6.2 mi Calm Calm - N/A   Unknown